Location: *
(58.4167°N, 22.5000°E)
Time: 05:50:20
(UTC+00:00)

Cosmos 2034 Rocket - Pass Details

Date: 22 September 2019
Orbit: 957 x 1001 km, 82.9° (Epoch: 20 October)

Event Time Altitude Azimuth Distance (km) Brightness Sun altitude
Rises 22:47:26 0° 347° (NNW) 3,665 8.0 -31.2°
Reaches altitude 10° 22:49:57 10° 347° (NNW) 2,711 7.1 -31.2°
Enters shadow 22:55:39 77° 355° (N) 991 4.0 -31.1°
